Weather History for Lander, WY

Change the Weather History Date:

Saturday, December 29, 2012

  Actual Average Record
Temperature  
Mean Temperature 5 °F 20 °F  
Max Temperature 13 °F 32 °F 56 °F (1996)
Min Temperature -4 °F 9 °F -26 °F (1990)
Degree Days  
Heating Degree Days 60 44  
Month to date heating degree days 1151 1286  
Since 1 July heating degree days 2650 3159  
Cooling Degree Days 0 0  
Month to date cooling degree days 0 0  
Year to date cooling degree days 779 472  
Moisture  
Dew Point -1 °F    
Average Humidity 79    
Maximum Humidity 91    
Minimum Humidity 67    
Precipitation  
Precipitation 0.00 in 0.02 in 0.64 in (1915)
Month to date precipitation 0.40 0.55  
Year to date precipitation 6.60 12.63  
Snow  
Snow 0.00 in 0.30 in - ()
Month to date snowfall 5.3 9.6  
Since 1 July snowfall 15.7 35.2  
Snow Depth 3.00 in    
Sea Level Pressure  
Sea Level Pressure 30.26 in    
Wind  
Wind Speed 1 mph (NW)    
Max Wind Speed 8 mph    
Max Gust Speed 9 mph    
Visibility 10 miles    
Events      
T = Trace of Precipitation, MM = Missing Value Source: NWS Daily Summary

Daily Weather History Graph

Daily Weather History Graph

Search for Another Location

Airport:

Trip Planner

Search our weather history database for the weather conditions in past years. The results will help you decide how hot, cold, wet, or windy it might be!

Date:

Astronomy

Dec. 29, 2012 Rise Set
Actual Time 7:45 AM MST 4:49 PM MST
Civil Twilight 7:13 AM MST 5:21 PM MST
Nautical Twilight 6:37 AM MST 5:57 PM MST
Astronomical Twilight 6:03 AM MST 6:31 PM MST
Moon 6:27 PM MST 8:18 AM MST
Length of Visible Light 10h 08m
Length of Day
9h 04m
Full, 98% of the Moon is Illuminated
Dec 29
Full
Jan 4
Last Quarter
Jan 11
New
Jan 18
First Quarter
Jan 26
Full

Hourly Weather History & Observations

Time (MST) Temp. Windchill Dew Point Humidity Pressure Visibility Wind Dir Wind Speed Gust Speed Precip Events Conditions
12:53 AM 1.0 °F - -4.0 °F 79% 30.25 in 10.0 mi Calm Calm - N/A   Clear
1:53 AM 3.9 °F - -0.9 °F 80% 30.24 in 10.0 mi Calm Calm - N/A   Clear
2:53 AM 1.0 °F - -2.9 °F 83% 30.26 in 10.0 mi Calm Calm - N/A   Clear
3:53 AM 1.0 °F -10.3 °F -4.0 °F 79% 30.27 in 10.0 mi NNW 5.8 mph - N/A   Clear
4:53 AM 1.9 °F - -2.9 °F 80% 30.28 in 10.0 mi Calm Calm - N/A   Clear
5:53 AM -0.0 °F -7.9 °F -4.0 °F 83% 30.31 in 10.0 mi NW 3.5 mph - N/A   Clear
6:53 AM -0.0 °F - -6.0 °F 76% 30.33 in 10.0 mi Calm Calm - N/A   Clear
7:53 AM -0.9 °F - -6.0 °F 79% 30.36 in 10.0 mi Calm Calm - N/A   Clear
8:53 AM -0.0 °F - -2.9 °F 88% 30.36 in 10.0 mi Calm Calm - N/A   Clear
9:53 AM 3.9 °F - 1.0 °F 88% 30.35 in 10.0 mi Calm Calm - N/A   Clear
10:53 AM 6.1 °F -0.9 °F 1.0 °F 80% 30.35 in 7.0 mi East 3.5 mph - N/A   Clear
11:53 AM 10.0 °F 3.6 °F 3.0 °F 73% 30.29 in 10.0 mi North 3.5 mph - N/A   Clear
12:53 PM 10.0 °F 3.6 °F 3.0 °F 73% 30.27 in 10.0 mi North 3.5 mph - N/A   Clear
1:53 PM 10.9 °F - 3.9 °F 73% 30.22 in 10.0 mi Calm Calm - N/A   Clear
2:53 PM 12.0 °F - 3.9 °F 70% 30.22 in 10.0 mi Calm Calm - N/A   Clear
3:53 PM 12.0 °F - 3.9 °F 70% 30.20 in 10.0 mi Calm Calm - N/A   Clear
4:53 PM 9.0 °F - 3.0 °F 77% 30.19 in 10.0 mi Calm Calm - N/A   Clear
5:53 PM 7.0 °F - 1.0 °F 77% 30.20 in 10.0 mi Calm Calm - N/A   Clear
6:53 PM 1.9 °F - -2.0 °F 83% 30.22 in 10.0 mi Calm Calm - N/A   Clear
7:53 PM 3.9 °F -5.3 °F -2.0 °F 76% 30.21 in 10.0 mi WSW 4.6 mph - N/A   Clear
8:53 PM 1.9 °F - -2.9 °F 80% 30.22 in 10.0 mi Calm Calm - N/A   Clear
9:53 PM -0.0 °F - -4.0 °F 83% 30.22 in 10.0 mi Calm Calm - N/A   Mostly Cloudy
10:53 PM -0.9 °F - -5.1 °F 83% 30.21 in 10.0 mi Calm Calm - N/A   Clear
11:53 PM -0.0 °F -11.6 °F -5.1 °F 79% 30.20 in 10.0 mi WSW 5.8 mph - N/A   Clear